KN4CCE-13 Weather Reports


time (UTC)temp
C
wind
direction
speed
KPH
gust
KPH
rain 1hr
cm
rain 24hr
cm
rain mn
cm
humidity
%
barometer
mb
20260505124519 17 107 0.0 0.0 0.00 0.00 0.00 72 1017.4
20260505123012 16 263 0.0 0.0 0.00 0.00 0.00 73 1017.3
20260505121520 16 262 0.0 0.0 0.00 0.00 0.00 76 1017.2
20260505120026 15 135 0.0 0.0 0.00 0.00 0.00 77 1017.2
20260505114519 14 134 0.0 0.0 0.00 0.00 0.00 78 1017.1
20260505113031 13 134 0.0 0.0 0.00 0.00 0.00 80 1017.2
20260505111520 13 134 0.0 0.0 0.00 0.00 0.00 81 1016.8
20260505101509 13 148 0.0 0.0 0.00 0.00 0.00 78 1016.2
20260505100005 13 148 0.0 0.0 0.00 0.00 0.00 77 1016.2
20260505094503 13 148 0.0 0.0 0.00 0.00 0.00 77 1016.0
20260505093009 13 148 0.0 0.0 0.00 0.00 0.00 77 1015.9
20260505091511 13 148 0.0 0.0 0.00 0.00 0.00 77 1015.8
20260505090013 13 148 0.0 0.0 0.00 0.00 0.00 76 1015.8
20260505084517 13 148 0.0 0.0 0.00 0.00 0.00 76 1015.7
20260505083013 14 148 0.0 0.0 0.00 0.00 0.00 74 1015.6
20260505081504 14 148 0.0 0.0 0.00 0.00 0.00 73 1015.6
20260505080028 15 148 0.0 0.0 0.00 0.00 0.00 73 1015.6
20260505074515 15 148 0.0 0.0 0.00 0.00 0.00 72 1015.5
20260505073017 15 148 0.0 0.0 0.00 0.00 0.00 72 1015.4
20260505071507 15 156 0.0 0.0 0.00 0.00 0.00 71 1015.3
20260505070008 15 159 0.0 0.0 0.00 0.00 0.00 71 1015.3
20260505064506 16 105 0.0 0.0 0.00 0.00 0.00 70 1015.3
20260505063018 15 103 0.0 0.0 0.00 0.00 0.00 71 1015.3
20260505061534 16 115 0.0 0.0 0.00 0.00 0.00 70 1015.2
20260505060018 16 116 0.0 0.0 0.00 0.00 0.00 70 1015.3
20260505054511 16 92 0.0 0.0 0.00 0.00 0.00 69 1015.3
20260505053011 16 95 0.0 0.0 0.00 0.00 0.00 69 1015.4
20260505051509 16 94 0.0 0.0 0.00 0.00 0.00 69 1015.5
20260505041526 17 115 0.0 0.0 0.00 0.00 0.00 68 1015.4
20260505040016 17 98 0.0 0.0 0.00 0.00 0.00 66 1015.4
20260505034510 17 102 0.0 0.0 0.00 0.00 0.00 65 1015.4
20260505033028 18 84 0.0 1.6 0.00 0.00 0.00 65 1015.4
20260505031514 18 49 0.0 4.8 0.00 0.00 0.00 64 1015.3
20260505030018 18 61 0.0 1.6 0.00 0.00 0.00 62 1015.4
20260505024535 18 105 0.0 1.6 0.00 0.00 0.00 60 1015.4
20260505023017 19 113 0.0 1.6 0.00 0.00 0.00 56 1015.4
20260505021510 20 129 0.0 0.0 0.00 0.00 0.00 51 1015.2
20260505020018 20 139 0.0 0.0 0.00 0.00 0.00 48 1015.1
20260505014520 20 104 0.0 0.0 0.00 0.00 0.00 47 1014.8
20260505013027 20 119 0.0 3.2 0.00 0.00 0.00 47 1014.7
20260505011504 21 125 0.0 0.0 0.00 0.00 0.00 46 1014.5
20260505010015 21 90 0.0 0.0 0.00 0.00 0.00 45 1014.2
20260505004517 21 119 0.0 0.0 0.00 0.00 0.00 45 1013.9
20260505003004 21 173 0.0 1.6 0.00 0.00 0.00 42 1013.7
20260505001506 22 106 0.0 0.0 0.00 0.00 0.00 40 1013.6
20260505000022 22 117 0.0 0.0 0.00 0.00 0.00 39 1013.6
20260504234507 23 103 0.0 0.0 0.00 0.00 0.00 37 1013.7
20260504233023 23 314 0.0 0.0 0.00 0.00 0.00 36 1013.4
20260504231510 23 312 0.0 0.0 0.00 0.00 0.00 38 1013.2
20260504230006 24 312 0.0 0.0 0.00 0.00 0.00 39 1013.2
20260504224511 25 309 0.0 0.0 0.00 0.00 0.00 32 1013.3
20260504223007 25 275 0.0 0.0 0.00 0.00 0.00 33 1013.3
20260504221506 25 105 0.0 0.0 0.00 0.00 0.00 35 1013.3
20260504220011 25 100 0.0 0.0 0.00 0.00 0.00 32 1013.3
20260504214510 25 294 0.0 0.0 0.00 0.00 0.00 31 1013.3
20260504213016 25 75 0.0 0.0 0.00 0.00 0.00 33 1013.5
20260504211515 25 105 0.0 1.6 0.00 0.00 0.00 33 1013.5
20260504210009 25 254 0.0 0.0 0.00 0.00 0.00 33 1013.5
20260504204508 26 293 0.0 0.0 0.00 0.00 0.00 34 1013.5
20260504203020 26 107 0.0 0.0 0.00 0.00 0.00 33 1013.6
20260504201517 26 109 0.0 0.0 0.00 0.00 0.00 32 1013.7
20260504200021 25 288 0.0 0.0 0.00 0.00 0.00 34 1013.9
20260504194531 26 271 0.0 0.0 0.00 0.00 0.00 34 1014.1
20260504193015 25 271 0.0 0.0 0.00 0.00 0.00 34 1014.4
20260504191509 25 271 0.0 0.0 0.00 0.00 0.00 33 1014.3
20260504190021 25 136 0.0 0.0 0.00 0.00 0.00 32 1014.6
20260504184525 25 290 0.0 0.0 0.00 0.00 0.00 34 1014.7
20260504183024 25 282 0.0 0.0 0.00 0.00 0.00 33 1015.1
20260504181511 25 104 0.0 0.0 0.00 0.00 0.00 34 1015.1
20260504180019 24 65 0.0 0.0 0.00 0.00 0.00 37 1015.2
20260504174514 23 280 0.0 0.0 0.00 0.00 0.00 38 1015.4
20260504173022 23 279 0.0 0.0 0.00 0.00 0.00 39 1015.4
20260504171526 23 287 0.0 0.0 0.00 0.00 0.00 42 1015.9